Wind_Speed
35 35 34 34 34 34 35 36 37 37 37 37 37 38 38 38 38 39 39 40 42 42 42 42 43 43 44 44 45 45 46 46 47 47 47 47 48 48 50 51 51 50 50
34 34 34 34 34 34 35 35 36 37 37 37 37 37 37 37 37 37 38 39 40 41 42 43 44 45 45 45 46 47 47 47 47 47 48 48 49 49 51 52 53 52 52
33 34 34 34 34 34 34 34 35 36 37 37 36 37 37 36 36 37 38 38 39 39 40 42 44 45 46 46 46 47 48 49 49 49 50 50 50 50 51 52 53 54 53
34 35 34 34 34 34 34 34 35 35 35 36 36 36 36 37 37 38 38 38 39 40 40 41 43 45 46 47 48 48 48 48 49 50 50 50 50 50 50 51 52 54 54
33 33 33 33 33 34 34 34 34 34 35 35 35 36 36 36 37 37 37 38 38 39 40 41 43 44 45 46 47 47 48 48 48 49 49 49 50 50 50 50 52 53 54
32 32 33 33 33 33 33 33 33 33 34 34 35 35 35 35 36 37 37 37 38 38 39 41 41 42 43 44 45 46 46 47 47 47 48 48 49 50 50 50 51 52 53
30 31 32 32 32 32 32 32 32 32 32 33 33 34 34 35 35 36 36 36 37 38 39 40 40 40 41 43 45 45 45 46 47 47 47 48 48 49 50 50 50 51 51
29 30 30 31 32 31 32 31 31 31 31 30 30 31 32 33 34 34 35 36 36 38 39 39 39 39 40 42 43 44 44 45 46 46 47 48 48 48 49 49 49 50 49
26 28 29 29 30 29 30 30 30 30 30 29 29 30 31 32 33 33 33 34 35 36 37 37 38 39 39 40 41 42 43 44 45 45 45 46 47 47 48 48 49 49 48
24 26 27 27 27 28 28 29 29 30 30 30 30 30 31 31 32 33 33 33 33 34 34 35 36 37 37 38 38 39 40 42 43 43 44 44 45 46 46 46 47 47 47
22 24 25 26 26 27 27 28 29 29 29 30 30 31 31 31 31 32 32 32 33 33 33 33 34 35 35 36 37 37 39 40 41 42 43 43 43 44 45 45 46 47 47
21 22 23 24 25 26 27 27 28 28 28 28 28 29 30 30 30 30 31 32 33 33 33 33 33 33 34 36 36 37 37 38 38 39 40 41 42 43 43 44 45 47 48
21 22 22 23 24 25 26 27 27 27 27 28 28 28 29 29 29 30 30 31 31 31 32 32 32 33 33 34 34 35 35 36 36 37 38 39 40 41 42 43 44 46 48
20 20 21 22 23 23 24 25 25 26 27 27 27 28 28 28 28 29 29 29 29 29 30 31 31 32 31 32 32 33 33 34 35 35 36 38 39 40 41 42 44 45 47
19 19 20 20 20 20 21 22 23 24 25 26 26 27 28 28 28 28 29 29 29 29 30 30 30 31 31 31 31 31 32 33 33 34 35 36 38 40 41 42 43 44 46
19 20 20 20 20 20 20 21 21 22 23 24 25 26 27 27 27 27 28 28 29 29 29 29 30 30 30 31 31 32 32 33 33 34 35 37 38 40 41 42 43 44 45
19 19 19 19 19 20 21 21 21 21 22 23 23 24 25 26 27 27 27 28 28 29 29 29 30 30 31 31 31 32 33 34 34 34 35 37 37 38 39 40 41 42 44
19 19 19 19 19 20 20 21 21 22 22 23 24 25 25 26 26 27 27 28 29 29 30 30 31 31 31 31 31 32 33 34 34 35 36 36 36 36 37 38 39 40 42
19 19 20 20 20 21 22 22 22 22 23 23 24 25 25 26 26 26 27 28 29 30 30 31 32 32 32 32 32 33 33 34 35 35 36 36 36 36 36 37 38 39 41
20 20 20 21 21 21 22 23 23 24 24 24 25 26 27 27 28 28 29 29 30 31 32 32 33 33 33 33 34 34 34 34 35 36 37 36 35 35 36 37 38 39 40
21 21 21 21 21 22 23 23 24 25 26 27 27 28 28 29 29 30 30 31 32 32 33 33 34 34 34 35 35 36 36 35 36 36 37 36 36 36 36 37 37 38 39
23 23 22 23 23 24 25 25 27 28 28 29 29 29 30 30 31 31 32 33 34 34 35 35 35 36 36 36 37 37 37 37 36 36 36 36 36 37 37 37 37 38 38
23 23 24 24 26 27 28 28 29 30 30 30 31 31 32 32 33 33 34 35 35 36 36 37 37 37 37 37 38 38 38 37 37 36 36 36 36 37 36 37 37 38 38
24 24 25 26 27 28 29 30 31 31 31 32 32 33 33 34 35 36 36 36 37 37 37 38 38 38 38 38 38 38 38 38 38 38 37 38 38 37 37 37 38 38 38
25 26 27 28 29 30 30 31 32 32 32 32 33 34 34 35 36 37 38 38 38 39 38 39 39 39 39 39 39 39 39 38 38 38 38 37 38 38 38 38 38 38 37
28 28 29 29 30 31 32 33 33 33 33 34 35 35 36 37 37 38 38 39 40 39 39 39 38 38 38 38 38 38 38 38 38 38 38 38 38 38 38 38 38 38 37
Wind_Direction
249 252 254 256 258 260 261 263 263 264 264 266 268 269 269 269 269 270 271 270 270 269 268 268 268 267 268 268 267 267 266 265 266 266 266 266 265 264 263 261 262 261 261
251 253 255 257 259 261 263 264 264 265 266 268 269 269 268 268 269 270 272 272 272 270 268 268 267 267 268 268 268 268 266 266 266 266 266 266 265 265 265 263 262 262 262
253 255 257 258 260 261 263 265 265 266 267 268 268 268 267 268 270 271 272 273 272 272 271 269 268 267 268 268 269 268 268 266 266 266 266 266 266 266 266 265 263 262 262
255 257 258 259 260 261 264 265 266 267 268 268 268 269 269 270 271 272 273 274 274 273 272 271 270 269 269 268 268 268 268 267 267 267 267 267 267 266 265 265 264 263 263
256 257 258 259 261 263 264 266 267 268 268 269 269 269 270 272 272 274 274 275 275 275 274 274 273 271 270 269 268 268 268 268 268 267 267 268 267 267 267 266 265 264 263
256 257 258 260 262 263 264 266 267 268 268 269 270 270 270 272 273 274 275 276 276 277 276 276 276 275 273 270 269 268 268 267 268 267 267 269 269 268 268 268 265 264 263
258 259 260 262 263 264 265 266 267 268 269 270 270 271 272 273 275 275 276 277 277 277 277 277 276 275 275 273 271 269 269 268 268 268 267 269 270 269 268 267 264 263 263
260 260 261 263 264 265 265 265 267 269 271 271 273 274 275 275 276 277 278 278 279 278 278 278 276 275 275 274 272 269 269 270 269 269 269 269 269 269 269 268 265 264 263
261 261 262 263 263 263 264 264 267 270 271 272 274 276 276 277 278 280 280 280 280 280 279 278 277 276 276 275 274 272 271 271 271 270 269 270 269 269 269 267 264 262 262
264 265 264 264 263 264 264 265 267 269 271 272 274 276 279 280 281 281 281 282 282 282 281 281 279 278 278 278 277 275 274 273 272 271 270 269 270 270 270 267 264 262 262
266 266 264 264 264 264 266 268 270 271 272 273 275 276 278 281 282 282 282 282 283 282 282 282 281 281 281 280 279 278 276 275 274 272 271 270 271 271 270 267 264 263 263
269 269 268 266 266 266 267 269 271 271 272 273 275 276 278 280 281 282 283 284 284 283 282 283 283 283 282 282 281 280 279 277 276 275 272 271 271 272 270 269 266 265 265
272 272 270 269 269 269 269 269 271 272 273 274 275 278 279 281 282 284 285 287 287 286 284 284 284 285 284 284 283 282 281 280 279 278 275 273 272 272 271 270 269 268 266
275 274 271 270 271 273 272 272 272 273 273 275 277 278 280 281 283 285 287 289 289 289 287 286 287 287 286 286 286 285 284 283 282 281 278 275 275 274 273 273 272 270 269
277 275 273 272 273 275 276 276 277 277 277 277 278 280 281 282 284 286 287 288 289 290 289 288 289 289 288 287 287 286 285 284 284 282 279 279 279 278 277 275 274 272 271
279 276 273 273 274 276 278 280 281 282 282 283 282 282 283 283 285 286 287 288 289 291 291 289 289 289 289 289 288 287 287 286 286 285 283 282 281 280 278 277 276 275 273
280 278 276 274 275 277 278 280 282 283 284 285 286 285 284 285 286 287 287 288 290 291 292 291 291 291 291 290 289 289 289 289 288 287 286 286 285 283 281 279 278 278 277
280 279 279 278 278 279 280 282 283 284 284 285 286 286 285 285 287 288 288 288 290 291 293 293 292 292 293 293 292 291 290 290 289 288 288 289 288 286 284 282 281 280 281
281 279 279 280 281 282 283 284 284 285 286 286 287 287 287 287 287 289 291 291 291 291 292 293 293 293 293 294 294 294 291 290 289 289 289 290 289 288 287 285 283 282 282
281 280 280 281 282 283 284 285 285 286 286 287 288 288 288 289 289 290 291 292 291 291 292 293 293 293 293 293 294 295 293 291 290 290 291 291 290 290 289 288 287 286 286
281 280 280 281 283 284 285 286 287 287 287 287 288 288 289 289 289 290 291 291 292 291 291 292 293 292 292 293 294 295 294 293 292 292 292 291 291 291 290 289 288 288 288
281 281 281 282 283 284 285 286 286 287 287 288 289 289 289 289 290 290 291 292 292 292 291 291 291 292 292 293 294 295 295 295 295 294 292 291 291 291 290 290 288 287 288
281 282 282 283 284 284 285 285 285 286 287 287 288 289 290 290 290 291 292 293 293 292 292 291 290 291 292 293 293 294 294 294 294 294 293 292 292 291 290 290 290 288 287
281 282 283 284 284 284 285 286 286 286 286 287 288 289 291 291 292 292 293 294 294 293 292 292 290 290 291 292 292 293 294 294 293 293 292 291 291 290 289 289 289 289 289
282 283 284 285 286 286 286 287 287 287 287 287 289 289 290 291 293 294 295 295 294 293 293 293 292 291 291 292 292 292 293 293 292 292 293 292 292 292 292 290 290 290 289
282 284 286 287 288 288 288 287 287 287 287 288 289 289 290 292 294 294 295 295 296 295 295 294 294 293 293 293 293 292 292 291 291 292 293 293 293 293 293 291 290 290 289
Height
5749 5751 5753 5754 5755 5756 5756 5756 5756 5757 5757 5757 5757 5756 5756 5755 5755 5754 5753 5752 5751 5751 5750 5751 5751 5751 5751 5752 5752 5752 5753 5753 5754 5754 5755 5756 5756 5757 5757 5758 5760 5762 5763
5742 5744 5746 5747 5748 5748 5748 5748 5748 5748 5748 5748 5748 5747 5747 5747 5746 5745 5744 5743 5742 5741 5740 5740 5740 5740 5740 5740 5741 5741 5741 5742 5742 5742 5743 5744 5745 5745 5746 5746 5748 5749 5750
5736 5737 5739 5739 5740 5740 5740 5740 5740 5740 5740 5739 5739 5739 5738 5738 5737 5736 5735 5733 5732 5730 5729 5729 5729 5729 5728 5729 5729 5729 5729 5730 5730 5730 5730 5731 5733 5734 5734 5734 5735 5736 5738
5729 5730 5731 5732 5732 5732 5732 5732 5732 5732 5731 5731 5730 5730 5730 5729 5728 5727 5725 5724 5722 5720 5719 5718 5717 5717 5717 5717 5717 5717 5717 5717 5718 5718 5718 5718 5719 5720 5722 5722 5722 5723 5724
5722 5723 5723 5724 5724 5725 5725 5724 5724 5723 5723 5722 5722 5721 5720 5720 5719 5717 5716 5714 5712 5710 5709 5707 5706 5705 5705 5704 5704 5704 5705 5705 5705 5705 5705 5705 5706 5706 5708 5710 5710 5710 5712
5715 5715 5716 5716 5717 5717 5717 5716 5716 5715 5715 5714 5713 5712 5712 5711 5710 5708 5706 5704 5702 5700 5698 5696 5695 5694 5693 5692 5692 5692 5693 5693 5693 5693 5693 5694 5694 5694 5695 5696 5698 5698 5699
5707 5707 5708 5709 5709 5709 5709 5708 5708 5708 5707 5706 5705 5704 5703 5702 5700 5699 5697 5695 5693 5691 5688 5686 5685 5683 5682 5681 5680 5681 5681 5681 5681 5681 5681 5681 5682 5682 5683 5683 5684 5685 5686
5700 5700 5701 5701 5701 5701 5701 5701 5700 5700 5699 5698 5697 5695 5694 5693 5692 5690 5688 5686 5684 5681 5679 5677 5675 5673 5672 5670 5669 5669 5669 5669 5668 5669 5669 5669 5670 5670 5670 5670 5671 5672 5673
5693 5693 5693 5693 5693 5694 5693 5693 5693 5692 5691 5690 5689 5688 5686 5685 5683 5681 5679 5677 5674 5672 5669 5667 5665 5664 5662 5660 5658 5658 5657 5657 5656 5656 5656 5656 5657 5657 5656 5656 5657 5659 5660
5686 5686 5686 5686 5686 5686 5686 5685 5685 5684 5683 5682 5681 5680 5678 5676 5674 5672 5670 5668 5665 5663 5660 5658 5656 5654 5652 5650 5648 5647 5646 5645 5644 5644 5644 5644 5644 5644 5643 5643 5644 5645 5647
5680 5679 5679 5679 5679 5678 5678 5678 5677 5676 5676 5674 5673 5672 5670 5669 5666 5664 5662 5659 5657 5654 5652 5649 5647 5645 5643 5641 5639 5637 5635 5634 5633 5632 5632 5632 5632 5631 5631 5631 5631 5632 5634
5673 5672 5672 5672 5671 5671 5671 5670 5670 5669 5668 5667 5665 5664 5662 5661 5659 5656 5654 5651 5648 5646 5643 5641 5638 5636 5634 5631 5629 5627 5625 5624 5622 5621 5621 5620 5620 5619 5619 5618 5619 5620 5621
5667 5666 5665 5665 5664 5664 5663 5663 5662 5661 5660 5659 5658 5657 5655 5653 5651 5648 5646 5643 5640 5638 5635 5633 5630 5627 5625 5622 5620 5617 5615 5614 5612 5611 5610 5609 5608 5607 5607 5606 5606 5607 5607
5660 5660 5659 5658 5657 5657 5656 5655 5655 5654 5653 5652 5650 5649 5647 5645 5643 5641 5638 5636 5633 5630 5627 5625 5622 5619 5616 5614 5611 5609 5606 5604 5603 5601 5600 5599 5598 5596 5595 5595 5594 5593 5593
5654 5653 5652 5652 5651 5650 5650 5649 5648 5646 5645 5644 5643 5641 5640 5638 5635 5633 5631 5628 5625 5622 5619 5617 5614 5611 5608 5606 5603 5601 5599 5596 5594 5592 5591 5589 5587 5585 5583 5582 5581 5580 5580
5648 5647 5646 5645 5645 5644 5643 5642 5641 5640 5638 5637 5635 5634 5632 5630 5628 5625 5623 5620 5618 5615 5612 5609 5606 5603 5600 5598 5595 5593 5591 5588 5586 5584 5581 5579 5576 5573 5571 5570 5568 5567 5566
5642 5641 5640 5639 5639 5638 5637 5636 5635 5633 5632 5630 5629 5627 5625 5623 5620 5618 5615 5613 5610 5607 5604 5601 5598 5595 5593 5589 5587 5584 5582 5579 5577 5574 5571 5569 5565 5562 5559 5557 5555 5553 5551
5636 5635 5634 5633 5632 5632 5631 5629 5628 5627 5625 5624 5622 5620 5618 5615 5613 5611 5608 5605 5602 5600 5597 5594 5591 5588 5584 5581 5578 5575 5572 5570 5567 5564 5561 5558 5554 5551 5548 5545 5543 5540 5539
5631 5629 5628 5627 5626 5625 5624 5623 5621 5620 5618 5617 5615 5613 5610 5608 5606 5603 5600 5597 5595 5592 5589 5586 5582 5579 5576 5573 5569 5566 5563 5560 5557 5554 5550 5547 5543 5540 5536 5534 5531 5529 5526
5625 5623 5622 5621 5620 5619 5617 5616 5615 5613 5611 5610 5607 5605 5603 5601 5598 5595 5593 5590 5586 5583 5580 5577 5574 5570 5567 5564 5560 5557 5553 5550 5547 5544 5540 5536 5532 5529 5525 5522 5520 5517 5515
5619 5617 5616 5615 5613 5612 5610 5609 5607 5606 5604 5602 5600 5597 5595 5593 5590 5587 5584 5581 5578 5575 5572 5568 5565 5561 5558 5554 5551 5547 5543 5540 5536 5532 5529 5525 5521 5518 5514 5511 5508 5506 5503
5612 5611 5609 5608 5606 5604 5603 5601 5600 5598 5596 5594 5592 5589 5587 5584 5581 5578 5575 5572 5569 5565 5562 5558 5555 5551 5547 5544 5540 5536 5532 5528 5525 5521 5518 5514 5511 5507 5504 5501 5497 5494 5491
5605 5603 5602 5600 5599 5597 5595 5593 5591 5589 5587 5585 5583 5580 5578 5575 5572 5569 5566 5562 5558 5555 5551 5547 5544 5540 5537 5533 5529 5525 5521 5517 5514 5510 5507 5503 5500 5496 5493 5490 5486 5483 5480
5598 5596 5594 5593 5591 5588 5586 5585 5582 5580 5578 5576 5573 5571 5568 5565 5562 5558 5555 5551 5547 5544 5540 5536 5533 5529 5525 5522 5518 5514 5510 5506 5503 5499 5496 5492 5489 5485 5482 5479 5475 5472 5468
5590 5588 5586 5584 5582 5580 5578 5575 5573 5571 5569 5566 5564 5561 5558 5555 5551 5547 5543 5539 5535 5531 5528 5524 5520 5517 5514 5510 5506 5502 5499 5495 5492 5488 5485 5481 5478 5474 5471 5468 5464 5460 5457
5581 5580 5578 5576 5573 5571 5568 5566 5564 5561 5559 5556 5553 5550 5547 5544 5540 5536 5532 5527 5523 5519 5515 5511 5508 5504 5501 5497 5494 5490 5486 5483 5480 5476 5473 5470 5466 5463 5459 5456 5453 5449 5446